TimeEST,TemperatureF,Dew PointF,Humidity,Sea Level PressureIn,VisibilityMPH,Wind Direction,Wind SpeedMPH,Gust SpeedMPH,PrecipitationIn,Events,Conditions,WindDirDegrees,DateUTC
12:15 AM,26.6,17.6,69,30.21,10.0,WSW,8.1,17.3,N/A,,Overcast,250,2013-01-04 05:15:00
12:35 AM,26.6,17.6,69,30.20,10.0,WSW,8.1,-,N/A,,Overcast,250,2013-01-04 05:35:00
12:55 AM,26.6,17.6,69,30.20,10.0,WSW,11.5,-,N/A,,Overcast,240,2013-01-04 05:55:00
1:15 AM,26.6,17.6,69,30.20,10.0,WSW,10.4,18.4,N/A,,Overcast,250,2013-01-04 06:15:00
1:35 AM,26.6,17.6,69,30.20,10.0,WSW,10.4,17.3,N/A,,Overcast,240,2013-01-04 06:35:00
1:55 AM,26.6,19.4,74,30.20,10.0,WSW,9.2,-,N/A,,Overcast,240,2013-01-04 06:55:00
2:15 AM,26.6,19.4,74,30.21,10.0,WSW,13.8,-,N/A,,Overcast,250,2013-01-04 07:15:00
2:35 AM,26.6,19.4,74,30.21,10.0,WSW,12.7,24.2,N/A,,Overcast,250,2013-01-04 07:35:00
2:55 AM,26.6,19.4,74,30.21,10.0,WSW,16.1,26.5,N/A,,Overcast,240,2013-01-04 07:55:00
3:35 AM,26.6,19.4,74,30.20,10.0,SW,10.4,-,N/A,,Overcast,230,2013-01-04 08:35:00
3:55 AM,26.6,19.4,74,30.21,10.0,WSW,12.7,18.4,N/A,,Overcast,240,2013-01-04 08:55:00
4:15 AM,26.6,19.4,74,30.21,10.0,WSW,11.5,19.6,N/A,,Overcast,240,2013-01-04 09:15:00
4:35 AM,26.6,19.4,74,30.21,10.0,WSW,9.2,-,N/A,,Overcast,240,2013-01-04 09:35:00
4:55 AM,26.6,19.4,74,30.21,10.0,SW,13.8,19.6,N/A,,Overcast,230,2013-01-04 09:55:00
5:15 AM,26.6,19.4,74,30.20,10.0,SW,11.5,19.6,N/A,,Overcast,230,2013-01-04 10:15:00
5:35 AM,26.6,19.4,74,30.20,10.0,WSW,10.4,-,N/A,,Overcast,240,2013-01-04 10:35:00
5:55 AM,28.4,19.4,69,30.20,10.0,WSW,18.4,23.0,N/A,,Overcast,240,2013-01-04 10:55:00
6:15 AM,28.4,19.4,69,30.19,10.0,WSW,13.8,23.0,N/A,,Overcast,240,2013-01-04 11:15:00
6:35 AM,28.4,19.4,69,30.20,10.0,WSW,11.5,17.3,N/A,,Overcast,240,2013-01-04 11:35:00
6:55 AM,28.4,19.4,69,30.20,10.0,SW,13.8,17.3,N/A,,Overcast,230,2013-01-04 11:55:00
7:15 AM,28.4,19.4,69,30.20,10.0,WSW,12.7,20.7,N/A,,Overcast,240,2013-01-04 12:15:00
7:35 AM,28.4,19.4,69,30.20,10.0,SW,13.8,19.6,N/A,,Overcast,220,2013-01-04 12:35:00
7:55 AM,28.4,19.4,69,30.20,10.0,WSW,11.5,24.2,N/A,,Overcast,240,2013-01-04 12:55:00
8:15 AM,28.4,19.4,69,30.20,10.0,SW,10.4,20.7,N/A,,Overcast,230,2013-01-04 13:15:00
8:35 AM,28.4,19.4,69,30.20,10.0,WSW,17.3,21.9,N/A,,Overcast,240,2013-01-04 13:35:00
8:55 AM,28.4,19.4,69,30.21,10.0,WSW,12.7,25.3,N/A,,Overcast,240,2013-01-04 13:55:00
9:15 AM,28.4,19.4,69,30.22,10.0,WSW,11.5,21.9,N/A,,Overcast,240,2013-01-04 14:15:00
9:35 AM,28.4,21.2,74,30.22,10.0,WSW,15.0,21.9,N/A,,Overcast,240,2013-01-04 14:35:00
9:55 AM,28.4,19.4,69,30.23,10.0,SW,15.0,21.9,N/A,,Overcast,230,2013-01-04 14:55:00
10:15 AM,28.4,19.4,69,30.23,10.0,WSW,11.5,26.5,N/A,,Overcast,240,2013-01-04 15:15:00
10:35 AM,28.4,19.4,69,30.23,10.0,WSW,13.8,24.2,N/A,,Overcast,240,2013-01-04 15:35:00
10:55 AM,28.4,19.4,69,30.23,10.0,WSW,13.8,23.0,N/A,,Overcast,240,2013-01-04 15:55:00
11:15 AM,30.2,19.4,64,30.22,10.0,WSW,19.6,27.6,N/A,,Overcast,240,2013-01-04 16:15:00
11:35 AM,30.2,19.4,64,30.21,10.0,WSW,12.7,19.6,N/A,,Overcast,240,2013-01-04 16:35:00
11:55 AM,30.2,19.4,64,30.20,10.0,SW,20.7,27.6,N/A,,Overcast,230,2013-01-04 16:55:00
12:15 PM,30.2,19.4,64,30.19,10.0,WSW,15.0,26.5,N/A,,Overcast,240,2013-01-04 17:15:00
12:35 PM,30.2,19.4,64,30.18,10.0,West,13.8,21.9,N/A,,Scattered Clouds,260,2013-01-04 17:35:00
12:55 PM,30.2,17.6,60,30.17,10.0,WSW,15.0,26.5,N/A,,Scattered Clouds,250,2013-01-04 17:55:00
1:15 PM,32.0,17.6,55,30.17,10.0,WSW,17.3,26.5,N/A,,Mostly Cloudy,240,2013-01-04 18:15:00
1:35 PM,32.0,17.6,55,30.17,10.0,WSW,15.0,23.0,N/A,,Partly Cloudy,250,2013-01-04 18:35:00
1:55 PM,32.0,17.6,55,30.17,10.0,WSW,13.8,24.2,N/A,,Scattered Clouds,240,2013-01-04 18:55:00
2:15 PM,33.8,19.4,56,30.16,10.0,WSW,15.0,20.7,N/A,,Scattered Clouds,250,2013-01-04 19:15:00
2:35 PM,32.0,17.6,55,30.16,10.0,West,16.1,27.6,N/A,,Partly Cloudy,260,2013-01-04 19:35:00
2:55 PM,33.8,19.4,56,30.17,10.0,SW,11.5,24.2,N/A,,Clear,230,2013-01-04 19:55:00
3:15 PM,33.8,17.6,52,30.17,10.0,WSW,17.3,23.0,N/A,,Clear,250,2013-01-04 20:15:00
3:35 PM,33.8,17.6,52,30.17,10.0,West,16.1,25.3,N/A,,Clear,260,2013-01-04 20:35:00
3:55 PM,33.8,17.6,52,30.17,10.0,WSW,20.7,28.8,N/A,,Clear,240,2013-01-04 20:55:00
4:15 PM,33.8,17.6,52,30.16,10.0,WSW,15.0,19.6,N/A,,Clear,240,2013-01-04 21:15:00
4:35 PM,33.8,17.6,52,30.16,10.0,WSW,15.0,19.6,N/A,,Clear,240,2013-01-04 21:35:00
4:55 PM,32.0,15.8,51,30.16,10.0,WSW,11.5,18.4,N/A,,Clear,240,2013-01-04 21:55:00
5:15 PM,30.2,15.8,55,30.17,10.0,WSW,9.2,-,N/A,,Clear,240,2013-01-04 22:15:00
5:35 PM,30.2,17.6,60,30.17,10.0,WSW,15.0,-,N/A,,Clear,240,2013-01-04 22:35:00
5:55 PM,30.2,17.6,60,30.17,10.0,WSW,15.0,19.6,N/A,,Clear,240,2013-01-04 22:55:00
6:35 PM,30.2,17.6,60,30.19,10.0,WSW,12.7,17.3,N/A,,Clear,240,2013-01-04 23:35:00
6:55 PM,30.2,17.6,60,30.20,10.0,SW,9.2,-,N/A,,Clear,230,2013-01-04 23:55:00
7:15 PM,28.4,17.6,64,30.20,10.0,SW,10.4,-,N/A,,Clear,230,2013-01-05 00:15:00
7:35 PM,28.4,17.6,64,30.20,10.0,SW,10.4,-,N/A,,Clear,220,2013-01-05 00:35:00
7:55 PM,28.4,19.4,69,30.20,10.0,SW,12.7,-,N/A,,Clear,230,2013-01-05 00:55:00
8:15 PM,28.4,17.6,64,30.20,10.0,SW,11.5,-,N/A,,Clear,230,2013-01-05 01:15:00
8:35 PM,28.4,19.4,69,30.21,10.0,WSW,12.7,20.7,N/A,,Clear,240,2013-01-05 01:35:00
8:55 PM,28.4,19.4,69,30.22,10.0,SW,12.7,-,N/A,,Clear,230,2013-01-05 01:55:00
9:15 PM,28.4,19.4,69,30.23,10.0,WSW,12.7,20.7,N/A,,Clear,240,2013-01-05 02:15:00
9:35 PM,28.4,17.6,64,30.23,10.0,WSW,16.1,24.2,N/A,,Clear,240,2013-01-05 02:35:00
10:15 PM,28.4,15.8,59,30.24,10.0,WSW,13.8,19.6,N/A,,Clear,240,2013-01-05 03:15:00
10:35 PM,28.4,15.8,59,30.24,10.0,WSW,12.7,-,N/A,,Clear,240,2013-01-05 03:35:00
10:55 PM,28.4,15.8,59,30.24,10.0,WSW,13.8,-,N/A,,Clear,240,2013-01-05 03:55:00
11:15 PM,28.4,15.8,59,30.25,10.0,WSW,12.7,18.4,N/A,,Clear,240,2013-01-05 04:15:00
11:35 PM,28.4,15.8,59,30.25,10.0,WSW,11.5,18.4,N/A,,Clear,240,2013-01-05 04:35:00
11:55 PM,28.4,15.8,59,30.25,10.0,WSW,11.5,17.3,N/A,,Clear,240,2013-01-05 04:55:00